CANX-2

Last updated on Sun Sep 20 2026 00:03:42 GMT+0000 (Coordinated Universal Time)

1 32790U 08021H 26262.37652270 .00002936 00000+0 20477-3 0 9994 2 32790 97.8747 244.0777 0011662 86.3399 273.9161 15.06167348998983
UTC large
Height (km)
Speed (km/s)
/
Latitude / Longitude
Inclination (degrees)
Orbital Period (minutes)
Azimuth
Elevation
Range (km)
Doppler Factor

Next 0 passes for location: London (51.5072 / 0.1276)

No passes found over London.
CANX-2